Date,TemperatureHighF,TemperatureAvgF,TemperatureLowF,DewpointHighF,DewpointAvgF,DewpointLowF,HumidityHigh,HumidityAvg,HumidityLow,PressureMaxIn,PressureMinIn,WindSpeedMaxMPH,WindSpeedAvgMPH,GustSpeedMaxMPH,PrecipitationSumIn
2014-1-1,10,6,3,-100,-100,-100,0,0,100,0.00,40.00,0,-999,0,0.00
2014-1-2,6,1,-3,-100,-100,-100,0,0,100,0.00,40.00,0,-999,0,0.00
2014-1-3,34,19,3,-100,-100,-100,0,0,100,0.00,40.00,0,-999,0,0.00
2014-1-4,33,20,5,-100,-100,-100,0,0,100,0.00,40.00,0,-999,0,0.00
2014-1-5,7,0,-13,-100,-100,-100,0,0,100,0.00,40.00,0,-999,0,0.00
2014-1-6,3,-7,-12,-100,-100,-100,0,0,100,0.00,40.00,0,-999,0,0.00
2014-1-7,26,10,-4,-100,-100,-100,0,0,100,0.00,40.00,0,-999,0,0.00
2014-1-8,18,15,10,-100,-100,-100,0,0,100,0.00,40.00,0,-999,0,0.00
2014-1-9,27,16,7,-100,-100,-100,0,0,100,0.00,40.00,0,-999,0,0.00
2014-1-10,32,29,25,-100,-100,-100,0,0,100,0.00,40.00,0,-999,0,0.00
2014-1-11,44,31,21,-100,-100,-100,0,0,100,0.00,40.00,0,-999,0,0.00
2014-1-12,45,40,36,-100,-100,-100,0,0,100,0.00,40.00,0,-999,0,0.00
2014-1-13,44,35,22,-100,-100,-100,0,0,100,0.00,40.00,0,-999,0,0.00
2014-1-14,43,31,14,-100,-100,-100,0,0,100,0.00,40.00,0,-999,0,0.00
2014-1-15,40,23,4,-100,-100,-100,0,0,100,0.00,40.00,0,-999,0,0.00
2014-1-16,42,32,16,-100,-100,-100,0,0,100,0.00,40.00,0,-999,0,0.00
2014-1-17,32,20,6,-100,-100,-100,0,0,100,0.00,40.00,0,-999,0,0.00
2014-1-18,40,31,20,-100,-100,-100,0,0,100,0.00,40.00,0,-999,0,0.00
2014-1-19,63,38,23,-100,-100,-100,0,0,100,0.00,40.00,0,-999,0,0.00
2014-1-20,43,26,3,-100,-100,-100,0,0,100,0.00,40.00,0,-999,0,0.00
2014-1-21,27,10,-3,-100,-100,-100,0,0,100,0.00,40.00,0,-999,0,0.00
2014-1-22,27,19,-1,-100,-100,-100,0,0,100,0.00,40.00,0,-999,0,0.00
2014-1-23,15,3,-8,-100,-100,-100,0,0,100,0.00,40.00,0,-999,0,0.00
2014-1-24,47,30,13,-100,-100,-100,0,0,100,0.00,40.00,0,-999,0,0.00
2014-1-25,43,35,28,-100,-100,-100,0,0,100,0.00,40.00,0,-999,0,0.00
2014-1-26,49,33,6,-100,-100,-100,0,0,100,0.00,40.00,0,-999,0,0.00
2014-1-27,10,2,-6,-100,-100,-100,0,0,100,0.00,40.00,0,-999,0,0.00
2014-1-28,18,4,-10,-100,-100,-100,0,0,100,0.00,40.00,0,-999,0,0.00
2014-1-29,44,23,-5,-100,-100,-100,0,0,100,0.00,40.00,0,-999,0,0.00
2014-1-30,39,28,17,-100,-100,-100,0,0,100,0.00,40.00,0,-999,0,0.00
2014-1-31,23,16,10,-100,-100,-100,0,0,100,0.00,40.00,0,-999,0,0.00
2014-2-1,19,16,7,-100,-100,-100,0,0,100,0.00,40.00,0,-999,0,0.00
2014-2-2,25,12,-7,-100,-100,-100,0,0,100,0.00,40.00,0,-999,0,0.00
2014-2-3,31,22,3,-100,-100,-100,0,0,100,0.00,40.00,0,-999,0,0.00
2014-2-4,23,13,2,-100,-100,-100,0,0,100,0.00,40.00,0,-999,0,0.00
2014-2-5,6,2,-7,-100,-100,-100,0,0,100,0.00,40.00,0,-999,0,0.00
2014-2-6,7,-3,-11,-100,-100,-100,0,0,100,0.00,40.00,0,-999,0,0.00
2014-2-7,14,9,1,-100,-100,-100,0,0,100,0.00,40.00,0,-999,0,0.00
2014-2-8,21,16,10,-100,-100,-100,0,0,100,0.00,40.00,0,-999,0,0.00
2014-2-9,16,8,3,-100,-100,-100,0,0,100,0.00,40.00,0,-999,0,0.00
2014-2-10,11,2,-9,-100,-100,-100,0,0,100,0.00,40.00,0,-999,0,0.00
2014-2-11,21,13,3,-100,-100,-100,0,0,100,0.00,40.00,0,-999,0,0.00
2014-2-12,24,21,18,-100,-100,-100,0,0,100,0.00,40.00,0,-999,0,0.00
2014-2-13,49,35,25,-100,-100,-100,0,0,100,0.00,40.00,0,-999,0,0.00
2014-2-14,27,21,17,-100,-100,-100,0,0,100,0.00,40.00,0,-999,0,0.00
2014-2-15,53,31,19,-100,-100,-100,0,0,100,0.00,40.00,0,-999,0,0.00
2014-2-16,32,25,18,-100,-100,-100,0,0,100,0.00,40.00,0,-999,0,0.00
2014-2-17,51,37,27,-100,-100,-100,0,0,100,0.00,40.00,0,-999,0,0.00
2014-2-18,61,43,35,-100,-100,-100,0,0,100,0.00,40.00,0,-999,0,0.00
2014-2-19,51,37,21,-100,-100,-100,0,0,100,0.00,40.00,0,-999,0,0.00
2014-2-20,37,32,23,-100,-100,-100,0,0,100,0.00,40.00,0,-999,0,0.00
2014-2-21,44,29,19,-100,-100,-100,0,0,100,0.00,40.00,0,-999,0,0.00
2014-2-22,36,28,23,-100,-100,-100,0,0,100,0.00,40.00,0,-999,0,0.00
2014-2-23,29,22,17,-100,-100,-100,0,0,100,0.00,40.00,0,-999,0,0.00
2014-2-24,23,20,18,-100,-100,-100,0,0,100,0.00,40.00,0,-999,0,0.00
2014-2-25,18,9,3,-100,-100,-100,0,0,100,0.00,40.00,0,-999,0,0.00
2014-2-26,32,15,-5,-100,-100,-100,0,0,100,0.00,40.00,0,-999,0,0.00
2014-2-27,19,11,1,-100,-100,-100,0,0,100,0.00,40.00,0,-999,0,0.00
2014-2-28,29,18,11,-100,-100,-100,0,0,100,0.00,40.00,0,-999,0,0.00
2014-3-1,13,7,1,-100,-100,-100,0,0,100,0.00,40.00,0,-999,0,0.00
2014-3-2,-1,-4,-8,-100,-100,-100,0,0,100,0.00,40.00,0,-999,0,0.00
2014-3-3,18,5,-9,-100,-100,-100,0,0,100,0.00,40.00,0,-999,0,0.00
2014-3-4,36,21,9,-100,-100,-100,0,0,100,0.00,40.00,0,-999,0,0.00
2014-3-5,30,21,15,-100,-100,-100,0,0,100,0.00,40.00,0,-999,0,0.00
2014-3-6,40,27,18,-100,-100,-100,0,0,100,0.00,40.00,0,-999,0,0.00
2014-3-7,36,31,24,-100,-100,-100,0,0,100,0.00,40.00,0,-999,0,0.00
2014-3-8,37,25,15,-100,-100,-100,0,0,100,0.00,40.00,0,-999,0,0.00
2014-3-9,69,46,29,-100,-100,-100,0,0,100,0.00,40.00,0,-999,0,0.00
2014-3-10,72,52,39,-100,-100,-100,0,0,100,0.00,40.00,0,-999,0,0.00
2014-3-11,51,38,31,-100,-100,-100,0,0,100,0.00,40.00,0,-999,0,0.00
2014-3-12,50,35,24,-100,-100,-100,0,0,100,0.00,40.00,0,-999,0,0.00
2014-3-13,63,47,28,-100,-100,-100,0,0,100,0.00,40.00,0,-999,0,0.00
2014-3-14,55,46,32,-100,-100,-100,0,0,100,0.00,40.00,0,-999,0,0.00
2014-3-15,57,38,27,-100,-100,-100,0,0,100,0.00,40.00,0,-999,0,0.00
2014-3-16,40,28,18,-100,-100,-100,0,0,100,0.00,40.00,0,-999,0,0.00
2014-3-17,58,39,25,-100,-100,-100,0,0,100,0.00,40.00,0,-999,0,0.00
2014-3-18,50,43,34,-100,-100,-100,0,0,100,0.00,40.00,0,-999,0,0.00
2014-3-19,47,42,35,-100,-100,-100,0,0,100,0.00,40.00,0,-999,0,0.00
2014-3-20,60,39,22,-100,-100,-100,0,0,100,0.00,40.00,0,-999,0,0.00
2014-3-21,51,40,27,-100,-100,-100,0,0,100,0.00,40.00,0,-999,0,0.00
2014-3-22,28,23,15,-100,-100,-100,0,0,100,0.00,40.00,0,-999,0,0.00
2014-3-23,37,24,7,-100,-100,-100,0,0,100,0.00,40.00,0,-999,0,0.00
2014-3-24,40,30,24,-100,-100,-100,0,0,100,0.00,40.00,0,-999,0,0.00
2014-3-25,36,27,19,-100,-100,-100,0,0,100,0.00,40.00,0,-999,0,0.00
2014-3-26,61,38,24,-100,-100,-100,0,0,100,0.00,40.00,0,-999,0,0.00
2014-3-27,42,37,30,-100,-100,-100,0,0,100,0.00,40.00,0,-999,0,0.00
2014-3-28,36,29,21,-100,-100,-100,0,0,100,0.00,40.00,0,-999,0,0.00
2014-3-29,54,36,20,-100,-100,-100,0,0,100,0.00,40.00,0,-999,0,0.00
2014-3-30,71,56,43,-100,-100,-100,0,0,100,0.00,40.00,0,-999,0,0.00
2014-3-31,62,46,24,-100,-100,-100,0,0,100,0.00,40.00,0,-999,0,0.00
2014-4-1,39,29,19,-100,-100,-100,0,0,100,0.00,40.00,0,-999,0,0.00
2014-4-2,40,33,25,-100,-100,-100,0,0,100,0.00,40.00,0,-999,0,0.00
2014-4-3,37,34,30,-100,-100,-100,0,0,100,0.00,40.00,0,-999,0,0.00
2014-4-4,40,33,29,-100,-100,-100,0,0,100,0.00,40.00,0,-999,0,0.00
2014-4-5,59,42,29,-100,-100,-100,0,0,100,0.00,40.00,0,-999,0,0.00
2014-4-6,61,51,45,-100,-100,-100,0,0,100,0.00,40.00,0,-999,0,0.00
2014-4-7,59,48,40,-100,-100,-100,0,0,100,0.00,40.00,0,-999,0,0.00
2014-4-8,54,42,32,-100,-100,-100,0,0,100,0.00,40.00,0,-999,0,0.00
2014-4-9,77,55,31,-100,-100,-100,0,0,100,0.00,40.00,0,-999,0,0.00
2014-4-10,64,56,42,-100,-100,-100,0,0,100,0.00,40.00,0,-999,0,0.00
2014-4-11,73,56,39,-100,-100,-100,0,0,100,0.00,40.00,0,-999,0,0.00
2014-4-12,77,65,55,-100,-100,-100,0,0,100,0.00,40.00,0,-999,0,0.00
2014-4-13,59,42,29,-100,-100,-100,0,0,100,0.00,40.00,0,-999,0,0.00
2014-4-14,36,29,24,-100,-100,-100,0,0,100,0.00,40.00,0,-999,0,0.00
2014-4-15,51,35,20,-100,-100,-100,0,0,100,0.00,40.00,0,-999,0,0.00
2014-4-16,58,46,33,-100,-100,-100,0,0,100,0.00,40.00,0,-999,0,0.00
2014-4-17,53,38,28,-100,-100,-100,0,0,100,0.00,40.00,0,-999,0,0.00
2014-4-18,65,49,36,-100,-100,-100,0,0,100,0.00,40.00,0,-999,0,0.00
2014-4-19,73,62,50,-100,-100,-100,0,0,100,0.00,40.00,0,-999,0,0.00
2014-4-20,79,65,55,-100,-100,-100,0,0,100,0.00,40.00,0,-999,0,0.00
2014-4-21,70,61,47,-100,-100,-100,0,0,100,0.00,40.00,0,-999,0,0.00
2014-4-22,68,53,33,-100,-100,-100,0,0,100,0.00,40.00,0,-999,0,0.00
2014-4-23,62,52,47,-100,-100,-100,0,0,100,0.00,40.00,0,-999,0,0.00
2014-4-24,63,52,46,-100,-100,-100,0,0,100,0.00,40.00,0,-999,0,0.00
2014-4-25,75,58,36,-100,-100,-100,0,0,100,0.00,40.00,0,-999,0,0.00
2014-4-26,76,64,46,-100,-100,-100,0,0,100,0.00,40.00,0,-999,0,0.00
2014-4-27,65,61,55,-100,-100,-100,0,0,100,0.00,40.00,0,-999,0,0.00
2014-4-28,62,55,45,-100,-100,-100,0,0,100,0.00,40.00,0,-999,0,0.00
2014-4-29,48,40,37,-100,-100,-100,0,0,100,0.00,40.00,0,-999,0,0.00
2014-4-30,43,40,38,-100,-100,-100,0,0,100,0.00,40.00,0,-999,0,0.00
2014-5-1,47,42,39,-100,-100,-100,0,0,100,0.00,40.00,0,-999,0,0.00
2014-5-2,68,50,33,-100,-100,-100,0,0,100,0.00,40.00,0,-999,0,0.00
2014-5-3,70,55,41,-100,-100,-100,0,0,100,0.00,40.00,0,-999,0,0.00
2014-5-4,62,52,44,-100,-100,-100,0,0,100,0.00,40.00,0,-999,0,0.00
2014-5-5,71,56,41,-100,-100,-100,0,0,100,0.00,40.00,0,-999,0,0.00
2014-5-13,55,50,45,-100,-100,-100,0,0,100,0.00,40.00,0,-999,0,0.00
2014-5-14,63,48,36,-100,-100,-100,0,0,100,0.00,40.00,0,-999,0,0.00
2014-5-15,49,42,32,-100,-100,-100,0,0,100,0.00,40.00,0,-999,0,0.00
2014-5-16,52,43,29,-100,-100,-100,0,0,100,0.00,40.00,0,-999,0,0.00
2014-5-17,63,50,36,-100,-100,-100,0,0,100,0.00,40.00,0,-999,0,0.00
2014-5-18,69,58,47,-100,-100,-100,0,0,100,0.00,40.00,0,-999,0,0.00
2014-5-19,81,68,58,-100,-100,-100,0,0,100,0.00,40.00,0,-999,0,0.00
2014-5-20,80,70,59,-100,-100,-100,0,0,100,0.00,40.00,0,-999,0,0.00
2014-5-21,76,67,57,-100,-100,-100,0,0,100,0.00,40.00,0,-999,0,0.00
2014-5-22,72,62,52,-100,-100,-100,0,0,100,0.00,40.00,0,-999,0,0.00
2014-5-23,77,65,52,-100,-100,-100,0,0,100,0.00,40.00,0,-999,0,0.00
2014-5-24,78,67,60,-100,-100,-100,0,0,100,0.00,40.00,0,-999,0,0.00
2014-5-25,80,67,62,-100,-100,-100,0,0,100,0.00,40.00,0,-999,0,0.00
2014-5-26,84,70,62,-100,-100,-100,0,0,100,0.00,40.00,0,-999,0,0.00
2014-5-27,83,72,62,-100,-100,-100,0,0,100,0.00,40.00,0,-999,0,0.00
2014-5-28,83,70,60,-100,-100,-100,0,0,100,0.00,40.00,0,-999,0,0.00
2014-5-29,83,72,61,-100,-100,-100,0,0,100,0.00,40.00,0,-999,0,0.00
2014-5-30,84,74,65,-100,-100,-100,0,0,100,0.00,40.00,0,-999,0,0.00
2014-5-31,81,73,65,-100,-100,-100,0,0,100,0.00,40.00,0,-999,0,0.00
2014-6-1,85,70,61,-100,-100,-100,0,0,100,0.00,40.00,0,-999,0,0.00
2014-6-2,79,67,58,-100,-100,-100,0,0,100,0.00,40.00,0,-999,0,0.00
2014-6-3,80,64,57,-100,-100,-100,0,0,100,0.00,40.00,0,-999,0,0.00
2014-6-4,73,64,58,-100,-100,-100,0,0,100,0.00,40.00,0,-999,0,0.00
2014-6-5,79,67,61,-100,-100,-100,0,0,100,0.00,40.00,0,-999,0,0.00
2014-6-6,85,72,58,-100,-100,-100,0,0,100,0.00,40.00,0,-999,0,0.00
2014-6-7,72,62,56,-100,-100,-100,0,0,100,0.00,40.00,0,-999,0,0.00
2014-6-8,69,60,50,-100,-100,-100,0,0,100,0.00,40.00,0,-999,0,0.00
2014-6-9,66,62,59,-100,-100,-100,0,0,100,0.00,40.00,0,-999,0,0.00
2014-6-10,80,66,54,-100,-100,-100,0,0,100,0.00,40.00,0,-999,0,0.00
2014-6-11,80,69,58,-100,-100,-100,0,0,100,0.00,40.00,0,-999,0,0.00
2014-6-12,69,63,55,-100,-100,-100,0,0,100,0.00,40.00,0,-999,0,0.00
2014-6-13,76,62,44,-100,-100,-100,0,0,100,0.00,40.00,0,-999,0,0.00
2014-6-14,83,71,61,-100,-100,-100,0,0,100,0.00,40.00,0,-999,0,0.00
2014-6-15,76,67,58,-100,-100,-100,0,0,100,0.00,40.00,0,-999,0,0.00
2014-6-16,65,64,62,-100,-100,-100,0,0,100,0.00,40.00,0,-999,0,0.00
2014-6-17,52,51,50,-100,-100,-100,0,0,100,0.00,40.00,0,-999,0,0.00
2014-6-18,51,49,48,-100,-100,-100,0,0,100,0.00,40.00,0,-999,0,0.00
2014-6-19,48,48,47,-100,-100,-100,0,0,100,0.00,40.00,0,-999,0,0.00
2014-6-20,48,48,47,-100,-100,-100,0,0,100,0.00,40.00,0,-999,0,0.00
2014-6-21,48,47,47,-100,-100,-100,0,0,100,0.00,40.00,0,-999,0,0.00
2014-6-22,47,47,47,-100,-100,-100,0,0,100,0.00,40.00,0,-999,0,0.00
2014-6-23,47,47,47,-100,-100,-100,0,0,100,0.00,40.00,0,-999,0,0.00
2014-6-24,47,47,47,-100,-100,-100,0,0,100,0.00,40.00,0,-999,0,0.00
2014-6-25,48,47,47,-100,-100,-100,0,0,100,0.00,40.00,0,-999,0,0.00
2014-6-26,48,47,47,-100,-100,-100,0,0,100,0.00,40.00,0,-999,0,0.00
2014-6-27,48,47,47,-100,-100,-100,0,0,100,0.00,40.00,0,-999,0,0.00
2014-6-28,48,48,48,-100,-100,-100,0,0,100,0.00,40.00,0,-999,0,0.00
2014-6-29,49,48,48,-100,-100,-100,0,0,100,0.00,40.00,0,-999,0,0.00
2014-6-30,49,48,48,-100,-100,-100,0,0,100,0.00,40.00,0,-999,0,0.00
2014-7-1,49,48,48,-100,-100,-100,0,0,100,0.00,40.00,0,-999,0,0.00
2014-7-2,49,48,48,-100,-100,-100,0,0,100,0.00,40.00,0,-999,0,0.00
2014-7-3,49,48,47,-100,-100,-100,0,0,100,0.00,40.00,0,-999,0,0.00
2014-7-4,48,47,47,-100,-100,-100,0,0,100,0.00,40.00,0,-999,0,0.00
2014-7-5,47,47,46,-100,-100,-100,0,0,100,0.00,40.00,0,-999,0,0.00
2014-7-6,47,46,45,-100,-100,-100,0,0,100,0.00,40.00,0,-999,0,0.00
2014-7-7,46,46,45,-100,-100,-100,0,0,100,0.00,40.00,0,-999,0,0.00
2014-7-8,46,45,44,-100,-100,-100,0,0,100,0.00,40.00,0,-999,0,0.00
2014-7-9,45,44,44,-100,-100,-100,0,0,100,0.00,40.00,0,-999,0,0.00
2014-7-10,44,44,43,-100,0,200,0,0,100,0.00,40.00,0,0,0,0.00
2014-7-11,43,43,42,-100,0,200,0,0,100,0.00,40.00,0,0,0,0.00
2014-7-12,43,40,36,-100,0,200,0,0,100,0.00,40.00,0,0,0,0.00
2014-7-13,35,30,27,-100,0,200,0,0,100,0.00,40.00,0,0,0,0.00
2014-7-14,27,26,26,-100,0,200,0,0,100,0.00,40.00,0,0,0,0.00
2014-7-15,26,26,25,-100,0,200,0,0,100,0.00,40.00,0,0,0,0.00
2014-7-16,26,25,24,-100,0,200,0,0,100,0.00,40.00,0,0,0,0.00
2014-7-17,25,24,23,-100,0,200,0,0,100,0.00,40.00,0,0,0,0.00
2014-7-18,24,23,23,-100,0,200,0,0,100,0.00,40.00,0,0,0,0.00
2014-7-19,23,22,22,-100,0,200,0,0,100,0.00,40.00,0,0,0,0.00
2014-7-20,23,22,21,-100,0,200,0,0,100,0.00,40.00,0,0,0,0.00
2014-7-21,22,22,21,-100,0,200,0,0,100,0.00,40.00,0,0,0,0.00
2014-7-22,21,21,20,-100,0,200,0,0,100,0.00,40.00,0,0,0,0.00
2014-7-23,21,21,20,-100,0,200,0,0,100,0.00,40.00,0,0,0,0.00
2014-7-24,21,20,19,-100,0,200,0,0,100,0.00,40.00,0,0,0,0.00
2014-7-25,20,19,18,-100,0,200,0,0,100,0.00,40.00,0,0,0,0.00
2014-7-26,18,18,18,-100,0,200,0,0,100,0.00,40.00,0,0,0,0.00
2014-7-27,18,18,18,-100,0,200,0,0,100,0.00,40.00,0,0,0,0.00
2014-7-28,18,18,17,-100,0,200,0,0,100,0.00,40.00,0,0,0,0.00
2014-7-29,18,18,17,-100,0,200,0,0,100,0.00,40.00,0,0,0,0.00
2014-7-30,18,18,17,-100,0,200,0,0,100,0.00,40.00,0,0,0,0.00
2014-7-31,18,18,17,-100,0,200,0,0,100,0.00,40.00,0,0,0,0.00
2014-8-1,17,17,16,-100,0,200,0,0,100,0.00,40.00,0,0,0,0.00
2014-8-2,17,16,15,-100,0,200,0,0,100,0.00,40.00,0,0,0,0.00
2014-8-3,16,16,14,-100,0,200,0,0,100,0.00,40.00,0,0,0,0.00
2014-8-4,16,16,15,-100,0,200,0,0,100,0.00,40.00,0,0,0,0.00
2014-8-5,16,15,15,-100,0,200,0,0,100,0.00,40.00,0,0,0,0.00
2014-8-6,15,15,15,-100,0,200,0,0,100,0.00,40.00,0,0,0,0.00
2014-8-7,15,15,14,-100,0,200,0,0,100,0.00,40.00,0,0,0,0.00
2014-8-8,15,15,14,-100,0,200,0,0,100,0.00,40.00,0,0,0,0.00
2014-8-9,15,15,15,-100,0,200,0,0,100,0.00,40.00,0,0,0,0.00
2014-8-10,15,15,14,-100,0,200,0,0,100,0.00,40.00,0,0,0,0.00
2014-8-11,15,15,14,-100,0,200,0,0,100,0.00,40.00,0,0,0,0.00